Change the Weather History Date:

Tuesday, July 15, 2014

  Actual Average Record
Temperature  
Mean Temperature 58 °F -  
Max Temperature 68 °F 82 °F 101 °F (1936)
Min Temperature 51 °F 56 °F 42 °F (1967)
Degree Days  
Heating Degree Days 6    
Growing Degree Days 8 (Base 50)    
Moisture  
Dew Point 50 °F    
Average Humidity 80    
Maximum Humidity 93    
Minimum Humidity 48    
Precipitation  
Precipitation 0.00 in - - ()
Sea Level Pressure  
Sea Level Pressure 29.96 in    
Wind  
Wind Speed 12 mph (NNW)    
Max Wind Speed 18 mph    
Max Gust Speed 29 mph    
Visibility 10 miles    
Events      
Averages and records for this station are not official NWS values.
T = Trace of Precipitation, MM = Missing Value Source: NWS Daily Summary

Daily Weather History Graph

Daily Weather History Graph

Search for Another Location

Airport or City:

Trip Planner

Search our weather history database for the weather conditions in past years. The results will help you decide how hot, cold, wet, or windy it might be!

Date:

Astronomy

Jul. 15, 2014 Rise Set
Actual Time 5:29 AM CDT 8:43 PM CDT
Civil Twilight 4:54 AM CDT 9:18 PM CDT
Nautical Twilight 4:08 AM CDT 10:04 PM CDT
Astronomical Twilight 3:11 AM CDT 11:00 PM CDT
Moon 10:38 PM CDT (7/15) 9:35 AM CDT (7/15)
Length of Visible Light 16h 24m
Length of Day
15h 13m
Waning Gibbous, 85% of the Moon is Illuminated
Jul 15
Waning Gibbous
Jul 18
Last Quarter
Jul 26
New
Aug 3
First Quarter
Aug 10
Full

Hourly Weather History & Observations

Time (CDT) Temp. Dew Point Humidity Pressure Visibility Wind Dir Wind Speed Gust Speed Precip Events Conditions
12:54 AM 52.0 °F 50.0 °F 93% 29.94 in 10.0 mi NNW 15.0 mph - N/A   Mostly Cloudy
1:54 AM 51.1 °F 48.9 °F 92% 29.93 in 10.0 mi NNW 12.7 mph - N/A   Mostly Cloudy
2:01 AM 51.1 °F 48.9 °F 92% 29.93 in 10.0 mi NNW 10.4 mph - N/A   Mostly Cloudy
2:20 AM 52.0 °F 48.9 °F 89% 29.93 in 10.0 mi North 9.2 mph - N/A   Overcast
2:54 AM 52.0 °F 48.9 °F 89% 29.92 in 10.0 mi NNW 6.9 mph - N/A   Overcast
3:14 AM 51.1 °F 48.9 °F 92% 29.92 in 10.0 mi NNW 10.4 mph - N/A   Scattered Clouds
3:54 AM 52.0 °F 50.0 °F 93% 29.93 in 10.0 mi NNW 10.4 mph - N/A   Overcast
4:14 AM 53.1 °F 50.0 °F 89% 29.92 in 10.0 mi NNW 9.2 mph - N/A   Overcast
4:54 AM 53.1 °F 51.1 °F 93% 29.94 in 10.0 mi NW 8.1 mph - N/A   Overcast
5:44 AM 53.1 °F 50.0 °F 89% 29.93 in 10.0 mi NW 10.4 mph - N/A   Overcast
5:54 AM 52.0 °F 50.0 °F 93% 29.95 in 10.0 mi NW 9.2 mph - N/A   Overcast
6:21 AM 53.1 °F 51.1 °F 93% 29.94 in 10.0 mi NW 10.4 mph - N/A   Overcast
6:31 AM 53.1 °F 51.1 °F 93% 29.94 in 10.0 mi NW 13.8 mph - N/A   Overcast
6:54 AM 54.0 °F 51.1 °F 90% 29.96 in 10.0 mi NW 11.5 mph 21.9 mph N/A   Overcast
7:35 AM 54.0 °F 51.1 °F 90% 29.95 in 10.0 mi NW 11.5 mph - N/A   Overcast
7:46 AM 54.0 °F 51.1 °F 90% 29.96 in 10.0 mi NW 12.7 mph - N/A   Overcast
7:54 AM 54.0 °F 51.1 °F 90% 29.97 in 10.0 mi NW 13.8 mph - N/A   Overcast
8:54 AM 55.9 °F 53.1 °F 90% 29.98 in 10.0 mi NW 12.7 mph - 0.00 in   Overcast
9:31 AM 57.9 °F 53.1 °F 84% 29.97 in 10.0 mi NNW 16.1 mph 23.0 mph N/A   Overcast
9:54 AM 59.0 °F 53.1 °F 81% 29.98 in 10.0 mi NNW 16.1 mph 21.9 mph N/A   Overcast
10:54 AM 60.1 °F 52.0 °F 75% 29.98 in 10.0 mi North 18.4 mph - N/A   Overcast
11:50 AM 60.8 °F 51.8 °F 72% 29.97 in 10.0 mi NNW 15.0 mph - N/A   Mostly Cloudy
11:54 AM 63.0 °F 53.1 °F 70% 29.98 in 10.0 mi NNW 17.3 mph 23.0 mph N/A   Mostly Cloudy
12:54 PM 61.0 °F 50.0 °F 67% 29.98 in 10.0 mi North 12.7 mph - N/A   Overcast
1:54 PM 64.0 °F 48.0 °F 56% 29.98 in 10.0 mi North 16.1 mph 28.8 mph N/A   Mostly Cloudy
2:54 PM 64.0 °F 48.9 °F 58% 29.99 in 10.0 mi NNW 13.8 mph - N/A   Overcast
3:54 PM 64.0 °F 50.0 °F 60% 29.98 in 10.0 mi North 15.0 mph - N/A   Mostly Cloudy
4:54 PM 64.9 °F 48.0 °F 54% 29.98 in 10.0 mi NNW 16.1 mph 23.0 mph N/A   Scattered Clouds
5:54 PM 66.0 °F 46.9 °F 50% 29.98 in 10.0 mi North 15.0 mph 20.7 mph N/A   Partly Cloudy
6:54 PM 66.0 °F 46.0 °F 48% 29.98 in 10.0 mi North 15.0 mph - N/A   Partly Cloudy
7:54 PM 63.0 °F 45.0 °F 52% 29.99 in 10.0 mi North 9.2 mph - N/A   Clear
8:54 PM 57.0 °F 48.0 °F 72% 29.99 in 10.0 mi NNW 4.6 mph - N/A   Clear
9:54 PM 54.0 °F 48.0 °F 80% 30.00 in 10.0 mi NW 3.5 mph - N/A   Clear
10:54 PM 53.1 °F 46.9 °F 80% 30.01 in 10.0 mi NW 4.6 mph - N/A   Clear
11:54 PM 51.1 °F 46.9 °F 86% 30.01 in 10.0 mi NNW 4.6 mph - N/A   Clear